Hereford, TX

10:49 PM CST on February 12, 2016 (GMT -0600)
Hereford Municipal

Weather History for KHRX - April, 2013

Change the Weather History Date:

Sunday, April 28, 2013

  Actual Average (KAMA) Record (KAMA)
Temperature  
Mean Temperature 66 °F 60 °F  
Max Temperature 86 °F 75 °F 92 °F (1927)
Min Temperature 46 °F 46 °F 31 °F (1994)
Degree Days  
Heating Degree Days 0 6  
Month to date heating degree days 269  
Since 1 July heating degree days 4078  
Cooling Degree Days 1 1  
Month to date cooling degree days 14  
Year to date cooling degree days 16  
Growing Degree Days 16 (Base 50)    
Moisture  
Dew Point 28 °F    
Average Humidity 27    
Maximum Humidity 49    
Minimum Humidity 7    
Precipitation  
Precipitation 0.00 in 0.05 in 1.99 in (1985)
Month to date precipitation 1.30  
Year to date precipitation 3.97  
Snow  
Snow 0.00 in 0.00 in T in (1999)
Month to date snowfall 0.7  
Since 1 July snowfall 17.6  
Snow Depth -    
Sea Level Pressure  
Sea Level Pressure 29.98 in    
Wind  
Wind Speed 9 mph (SW)    
Max Wind Speed 21 mph    
Max Gust Speed 29 mph    
Visibility 10 miles    
Events      
T = Trace of Precipitation, MM = Missing Value Source: NWS Daily Summary

Daily Weather History Graph

Daily Weather History Graph

Search for Another Location

Airport or City:

Trip Planner

Search our weather history database for the weather conditions in past years. The results will help you decide how hot, cold, wet, or windy it might be!

Date:

Astronomy

Apr. 28, 2013 Rise Set
Actual Time 7:01 AM CDT 8:32 PM CDT
Civil Twilight 6:34 AM CDT 8:59 PM CDT
Nautical Twilight 6:02 AM CDT 9:31 PM CDT
Astronomical Twilight 5:28 AM CDT 10:05 PM CDT
Moon No Moon Rise 9:24 AM CDT (4/28)
Length of Visible Light 14h 24m
Length of Day
13h 30m
Waning Gibbous, 88% of the Moon is Illuminated
Apr 28
Waning Gibbous
May 2
Last Quarter
May 9
New
May 17
First Quarter
May 24
Full

Hourly Weather History & Observations

Time (CDT) Temp. Dew Point Humidity Pressure Visibility Wind Dir Wind Speed Gust Speed Precip Events Conditions
12:15 AM 58.5 °F 28.2 °F 32% 30.07 in 10.0 mi South 12.7 mph - N/A   Clear
12:35 AM 59.4 °F 28.6 °F 31% 30.07 in 10.0 mi South 13.8 mph - N/A   Clear
12:55 AM 58.5 °F 28.8 °F 32% 30.07 in 10.0 mi South 10.4 mph - N/A   Clear
1:15 AM 54.7 °F 28.6 °F 37% 30.06 in 10.0 mi South 9.2 mph - N/A   Clear
1:35 AM 54.0 °F 28.9 °F 38% 30.07 in 10.0 mi South 8.1 mph - N/A   Clear
1:55 AM 53.4 °F 29.3 °F 40% 30.06 in 10.0 mi South 6.9 mph - N/A   Clear
2:15 AM 53.6 °F 29.3 °F 39% 30.06 in 10.0 mi SSW 8.1 mph - N/A   Clear
2:35 AM 52.7 °F 29.1 °F 40% 30.05 in 10.0 mi SSW 4.6 mph - N/A   Clear
2:55 AM 50.9 °F 29.1 °F 43% 30.05 in 10.0 mi Calm Calm - N/A   Clear
3:15 AM 51.1 °F 29.3 °F 43% 30.05 in 10.0 mi Calm Calm - N/A   Clear
3:35 AM 51.4 °F 29.8 °F 44% 30.04 in 10.0 mi SW 9.2 mph - N/A   Clear
3:55 AM 49.1 °F 29.8 °F 47% 30.04 in 10.0 mi SW 5.8 mph - N/A   Clear
4:15 AM 49.1 °F 29.8 °F 47% 30.04 in 10.0 mi WSW 5.8 mph - N/A   Clear
4:35 AM 46.9 °F 28.4 °F 49% 30.04 in 10.0 mi Calm Calm - N/A   Clear
4:55 AM 49.5 °F 29.5 °F 46% 30.04 in 10.0 mi SW 6.9 mph - N/A   Clear
5:15 AM 48.6 °F 30.2 °F 49% 30.04 in 10.0 mi WSW 6.9 mph - N/A   Clear
5:35 AM 50.0 °F 31.3 °F 49% 30.04 in 10.0 mi SW 8.1 mph - N/A   Clear
5:55 AM 51.3 °F 31.3 °F 46% 30.04 in 10.0 mi SW 9.2 mph - N/A   Clear
6:15 AM 51.8 °F 31.5 °F 46% 30.04 in 10.0 mi SW 9.2 mph - N/A   Clear
6:35 AM 52.2 °F 31.8 °F 46% 30.05 in 10.0 mi WSW 9.2 mph - N/A   Clear
6:55 AM 52.5 °F 32.0 °F 46% 30.05 in 10.0 mi WSW 11.5 mph - N/A   Clear
7:15 AM 52.3 °F 32.0 °F 46% 30.05 in 10.0 mi WSW 11.5 mph - N/A   Clear
7:35 AM 53.6 °F 32.5 °F 45% 30.05 in 10.0 mi WSW 13.8 mph 18.4 mph N/A   Clear
8:15 AM 57.6 °F 33.1 °F 40% 30.06 in 10.0 mi WSW 12.7 mph - N/A   Clear
8:35 AM 60.6 °F 34.3 °F 37% 30.06 in 10.0 mi SW 17.3 mph 20.7 mph N/A   Clear
8:55 AM 63.0 °F 36.5 °F 37% 30.07 in 10.0 mi WSW 18.4 mph 24.2 mph N/A   Clear
9:15 AM 64.6 °F 37.0 °F 36% 30.06 in 10.0 mi SW 20.7 mph 28.8 mph N/A   Clear
9:35 AM 66.6 °F 37.8 °F 35% 30.06 in 10.0 mi North - - N/A   Clear
9:55 AM 68.7 °F 38.5 °F 33% 30.05 in 10.0 mi North - - N/A   Clear
10:15 AM 70.5 °F 40.5 °F 34% 30.05 in 10.0 mi North - - N/A   Clear
10:35 AM 71.6 °F 40.8 °F 33% 30.04 in 10.0 mi North - - N/A   Clear
10:55 AM 72.7 °F 42.4 °F 34% 30.04 in 10.0 mi North - - N/A   Clear
11:15 AM 74.1 °F 43.2 °F 33% 30.04 in 10.0 mi North - - N/A   Clear
11:35 AM 76.3 °F 43.7 °F 31% 30.03 in 10.0 mi North - - N/A   Clear
11:55 AM 76.8 °F 43.0 °F 30% 30.02 in 10.0 mi West 20.7 mph - N/A   Clear
12:15 PM 78.6 °F 40.6 °F 26% 30.02 in 10.0 mi West 17.3 mph - N/A   Clear
12:35 PM 79.5 °F 40.6 °F 25% 30.01 in 10.0 mi North - - N/A   Clear
12:55 PM 80.8 °F 33.4 °F 18% 30.00 in 10.0 mi North - - N/A   Clear
1:15 PM 81.3 °F 30.6 °F 16% 29.99 in 10.0 mi WSW 9.2 mph - N/A   Clear
1:35 PM 82.6 °F 26.1 °F 13% 29.98 in 10.0 mi North - - N/A   Clear
1:55 PM 83.3 °F 23.9 °F 11% 29.97 in 10.0 mi SW 16.1 mph 24.2 mph N/A   Clear
2:15 PM 84.4 °F 21.9 °F 10% 29.96 in 10.0 mi WNW 6.9 mph 17.3 mph N/A   Clear
2:35 PM 84.2 °F 22.8 °F 11% 29.95 in 10.0 mi South 13.8 mph 18.4 mph N/A   Clear
2:55 PM 82.9 °F 22.8 °F 11% 29.95 in 10.0 mi Calm Calm - N/A   Clear
3:15 PM 84.4 °F 22.1 °F 10% 29.94 in 10.0 mi SW 6.9 mph - N/A   Clear
3:35 PM 84.9 °F 21.0 °F 10% 29.92 in 10.0 mi South 5.8 mph - N/A   Clear
3:55 PM 83.8 °F 22.8 °F 11% 29.91 in 10.0 mi SSW 4.6 mph - N/A   Clear
4:15 PM 85.6 °F 23.2 °F 10% 29.90 in 10.0 mi West 8.1 mph - N/A   Clear
4:35 PM 85.1 °F 23.4 °F 10% 29.89 in 10.0 mi SSW 6.9 mph 18.4 mph N/A   Clear
4:55 PM 85.5 °F 21.9 °F 10% 29.88 in 10.0 mi West 6.9 mph - N/A   Clear
5:15 PM 86.0 °F 21.7 °F 9% 29.88 in 10.0 mi North - - N/A   Clear
5:35 PM 85.1 °F 19.9 °F 9% 29.87 in 10.0 mi SSW 6.9 mph - N/A   Clear
5:55 PM 85.6 °F 19.0 °F 9% 29.87 in 10.0 mi SSW 3.5 mph - N/A   Clear
6:15 PM 85.1 °F 19.0 °F 9% 29.87 in 10.0 mi SW 9.2 mph - N/A   Clear
6:35 PM 84.4 °F 16.7 °F 8% 29.86 in 10.0 mi West 3.5 mph - N/A   Clear
6:55 PM 84.4 °F 16.5 °F 8% 29.86 in 10.0 mi West 5.8 mph - N/A   Clear
7:15 PM 83.5 °F 16.3 °F 8% 29.86 in 10.0 mi Calm Calm - N/A   Clear
7:35 PM 83.3 °F 14.0 °F 7% 29.85 in 10.0 mi SW 4.6 mph - N/A   Clear
7:55 PM 81.5 °F 15.6 °F 8% 29.86 in 10.0 mi SW 5.8 mph - N/A   Clear
8:15 PM 79.0 °F 15.3 °F 9% 29.86 in 10.0 mi SW 6.9 mph - N/A   Clear
8:35 PM 77.9 °F 14.5 °F 9% 29.86 in 10.0 mi SW 3.5 mph - N/A   Clear
8:55 PM 72.1 °F 16.7 °F 12% 29.87 in 4.0 mi SSW 9.2 mph - N/A   Haze
9:15 PM 70.2 °F 22.1 °F 16% 29.87 in 7.0 mi SSW 6.9 mph - N/A   Clear
9:35 PM 69.1 °F 26.1 °F 20% 29.88 in 3.0 mi SSW 6.9 mph - N/A   Haze
9:55 PM 68.0 °F 28.0 °F 22% 29.88 in 3.0 mi SW 10.4 mph - N/A   Haze
10:15 PM 68.0 °F 27.9 °F 22% 29.88 in 10.0 mi SW 10.4 mph - N/A   Clear
10:35 PM 64.4 °F 28.8 °F 26% 29.88 in 7.0 mi SSW 8.1 mph - N/A   Clear
10:55 PM 60.1 °F 27.7 °F 29% 29.88 in 10.0 mi SSW 6.9 mph - N/A   Clear
11:15 PM 58.6 °F 27.9 °F 31% 29.88 in 10.0 mi SSW 8.1 mph - N/A   Clear
11:35 PM 56.7 °F 28.2 °F 34% 29.88 in 10.0 mi South 8.1 mph - N/A   Clear
11:55 PM 56.5 °F 28.6 °F 34% 29.88 in 10.0 mi South 6.9 mph - N/A   Clear